Printer-friendly version

IAU Minor Planet Center

Minor Planet Center

MPEC 2006-D42 : 2006 DR14

The following Minor Planet Electronic Circular may be linked-to from your own Web pages, but must not otherwise be redistributed electronically.


Read MPEC 2006-D41 Read MPEC 2006-D43


M.P.E.C. 2006-D42                                Issued 2006 Feb. 25, 15:19 UT

     The Minor Planet Electronic Circulars contain information on unusual
         minor planets and routine data on comets.  They are published
   on behalf of Commission 20 of the International Astronomical Union by the
          Minor Planet Center, Smithsonian Astrophysical Observatory,
                          Cambridge, MA 02138, U.S.A.

                  Supported in part by the Brinson Foundation
                  Supported in part by the TABASGO Foundation
             Prepared using the Tamkin Foundation Computer Network

                              MPC@CFA.HARVARD.EDU
          URL http://cfa-www.harvard.edu/iau/mpc.html  ISSN 1523-6714

                                   2006 DR14

Observations:
     K06D14R* C2006 02 24.27426 09 36 40.41 +12 41 26.8          17.0 V ED042G96
     K06D14R  C2006 02 24.27966 09 37 03.31 +12 36 11.1                 ED042G96
     K06D14R  C2006 02 24.28508 09 37 26.26 +12 30 52.9                 ED042G96
     K06D14R  C2006 02 24.29051 09 37 49.02 +12 25 36.7                 ED042G96
     K06D14R  C2006 02 24.32612 09 40 15.37 +11 51 34.4          17.0 V ED042G96
     K06D14R  C2006 02 24.32634 09 40 16.27 +11 51 21.8          17.1 V ED042G96
     K06D14R  C2006 02 24.32656 09 40 17.16 +11 51 09.3          17.2 V ED042G96
     K06D14R  C2006 02 24.32679 09 40 18.06 +11 50 56.5          17.1 V ED042G96
     K06D14R  C2006 02 24.35594 09 42 14.09 +11 23 48.4          17.0 V ED042G96
     K06D14R  C2006 02 24.35619 09 42 15.05 +11 23 34.8          16.8 V ED042G96
     K06D14R  C2006 02 24.35644 09 42 16.02 +11 23 21.4          17.0 V ED042G96
     K06D14R  C2006 02 24.35668 09 42 16.98 +11 23 07.9          17.0 V ED042G96
     K06D14R  C2006 02 24.42240 09 46 27.90 +10 24 23.0          16.9 V ED042G96
     K06D14R  C2006 02 24.42266 09 46 28.85 +10 24 09.9          17.1 V ED042G96
     K06D14R  C2006 02 24.42292 09 46 29.83 +10 23 56.0          17.1 V ED042G96
     K06D14R  C2006 02 24.42317 09 46 30.74 +10 23 43.2          17.1 V ED042G96
     K06D14R  C2006 02 24.43862 09 47 25.83 +10 08 54.6          17.6 R ED042H36
     K06D14R  C2006 02 24.44140 09 47 36.19 +10 06 32.3          17.7 R ED042H36
     K06D14R  C2006 02 24.72652 10 04 17.03 +06 31 57.2          17.3 V ED042A50
     K06D14R  C2006 02 24.72689 10 04 18.10 +06 31 42.6          17.4 V ED042A50
     K06D14R  C2006 02 24.72812 10 04 21.49 +06 30 54.7          17.4 V ED042A50
     K06D14R  C2006 02 24.72878 10 04 23.36 +06 30 29.1          17.3 V ED042A50
     K06D14R  C2006 02 25.21444 10 23 03.08 +02 08 52.1          18.8 R ED042734
     K06D14R  C2006 02 25.21575 10 23 05.25 +02 08 16.4          18.0 R ED042734
     K06D14R  C2006 02 25.21705 10 23 07.62 +02 07 41.8          17.8 R ED042734
     K06D14R  C2006 02 25.21836 10 23 09.86 +02 07 07.4          18.6 R ED042734
     K06D14R  C2006 02 25.29924 10 25 32.40 +01 33 08.2          17.8 V ED042G96
     K06D14R  C2006 02 25.30021 10 25 33.96 +01 32 44.0          17.8 V ED042G96
     K06D14R  C2006 02 25.32406 10 25 58.01 +01 21 47.5          18.3 R ED042932
     K06D14R  C2006 02 25.33216 10 26 11.32 +01 18 30.0          17.8 R ED042932
     K06D14R  C2006 02 25.33579 10 26 17.18 +01 17 01.2          17.9 R ED042932
     K06D14R  C2006 02 25.35970 10 27 07.34 +01 08 37.4          16.9 R ED042651
     K06D14R  C2006 02 25.36025 10 27 08.19 +01 08 24.1          16.7 R ED042651
     K06D14R  C2006 02 25.36080 10 27 09.05 +01 08 10.8          17.0 R ED042651

Observer details:
651 Grasslands Observatory, Tucson.  Observer J. E. McGaha.  0.62-m f/5.1
    Newtonian reflector + CCD.
734 Farpoint Observatory.  Observer G. Hug.  0.7-m reflector + CCD.
932 John J. McCarthy Obs., New Milford.  Observer M. Robson.  Measurer
    J. Reynolds.  0.4-m f/6.5 Schmidt-Cassegrain + CCD.
A50 Andrushivka Astronomical Observatory.  Observers O. Gerashchenko,
    Y. Ivashchenko.  0.6-m f/2.0 reflector + CCD.
G96 Mt. Lemmon Survey.  Observer E. J. Christensen.  Measurers E. C. Beshore,
    E. J. Christensen, G. J. Garradd, A. D. Grauer, R. E. Hill, R. A. Kowalski,
    S. M. Larson, R. H. McNaught, A. R. Gibbs.  1.5-m reflector + CCD.
H36 Sandlot Observatory, Scranton.  Observer G. Hug.  0.30-m
    Schmidt-Cassegrain + CCD.

Orbital elements:
2006 DR14                                                Earth MOID = 0.0033 AU
Epoch 2006 Mar. 6.0 TT = JDT 2453800.5                  MPC
M  10.53988              (2000.0)            P               Q
n   0.24921153     Peri.  134.62936     -0.33923011     -0.93976422
a   2.5008672      Node   335.10947     +0.83234662     -0.27903966
e   0.6468275      Incl.    5.73052     +0.43831727     -0.19743372
P   3.95           H   26.1           G   0.15           U   6
Residuals in seconds of arc
060224 G96  0.1-  1.5-    060224 G96  0.3+  0.2-    060225 734  0.6+  0.9-
060224 G96  0.6-  0.4+    060224 G96  0.0   0.3+    060225 734  0.0   0.5-
060224 G96  0.3+  0.3-    060224 G96  0.2+  0.1-    060225 G96  0.1-  0.4+
060224 G96  0.1-  0.1+    060224 G96  0.1-  0.1+    060225 G96  0.1-  0.5+
060224 G96  0.1+  0.2+    060224 H36  0.7+  0.2+    060225 932  0.2+  0.6-
060224 G96  0.3+  0.1+    060224 H36  0.2+  0.5+    060225 932  0.6+  0.4+
060224 G96  0.3+  0.0     060224 A50  0.6+  0.6+    060225 932  0.7-  0.1+
060224 G96  0.1-  0.2+    060224 A50  1.1+  0.5+    060225 651 (3.4-  4.5+)
060224 G96  0.5+  0.4-    060224 A50  0.4+  0.8+    060225 651 (3.4-  4.4+)
060224 G96  0.2+  0.2-    060224 A50  0.9+  1.1+    060225 651 (3.2-  4.3+)
060224 G96  0.0   0.2+    060225 734  0.8+  0.1-
060224 G96  0.2+  0.1-    060225 734  1.0-  0.9-

Ephemeris:
2006 DR14                a,e,i = 2.50, 0.65, 6                   q = 0.8832
Date    TT    R. A. (2000) Decl.     Delta      r     Elong.  Phase     V
2006 02 24    09 12.36   +17 50.1    0.0102   0.999   159.9    19.9    17.1
2006 02 25    10 15.47   +03 58.2    0.0161   1.006   173.4     6.5    17.6
2006 02 26    10 41.91   -02 13.8    0.0229   1.013   168.8    11.0    18.6
2006 02 27    10 56.04   -05 31.0    0.0301   1.019   165.4    14.2    19.3
2006 02 28    11 04.75   -07 30.7    0.0374   1.026   163.4    16.0    19.9
2006 03 01    11 10.63   -08 50.0    0.0447   1.034   162.4    16.9    20.3
2006 03 02    11 14.85   -09 45.8    0.0522   1.041   161.8    17.3    20.7
2006 03 03    11 18.01   -10 26.8    0.0597   1.048   161.6    17.4    21.0
2006 03 04    11 20.46   -10 57.9    0.0672   1.056   161.6    17.3    21.3
2006 03 05    11 22.41   -11 21.9    0.0748   1.063   161.7    17.1    21.5
2006 03 06    11 23.99   -11 40.8    0.0825   1.071   161.9    16.7    21.7
2006 03 07    11 25.30   -11 55.7    0.0901   1.078   162.2    16.4    21.9
2006 03 08    11 26.40   -12 07.6    0.0978   1.086   162.5    16.0    22.1
2006 03 09    11 27.33   -12 17.1    0.106    1.094   162.8    15.5    22.3
2006 03 10    11 28.12   -12 24.7    0.113    1.102   163.2    15.1    22.4
2006 03 11    11 28.82   -12 30.6    0.121    1.110   163.6    14.7    22.6
2006 03 12    11 29.42   -12 35.2    0.129    1.118   163.9    14.3    22.7
2006 03 13    11 29.96   -12 38.6    0.137    1.126   164.3    13.9    22.8
2006 03 14    11 30.44   -12 41.1    0.145    1.135   164.6    13.5    23.0
2006 03 15    11 30.87   -12 42.7    0.153    1.143   164.9    13.1    23.1
2006 03 16    11 31.26   -12 43.6    0.162    1.151   165.1    12.8    23.2

     This object passed 0.00775 AU from the earth on Feb. 23.13 UT.

Brian G. Marsden             (C) Copyright 2006 MPC           M.P.E.C. 2006-D42

Read MPEC 2006-D41 Read MPEC 2006-D43


Our Web policy. Index to the CBAT/MPC/ICQ pages.


Valid HTML 4.01!